When you browse on this site, cookies collect data to enhance your experience and personalize the content and advertising you see.
Visit our Privacy Policy to learn more. By continuing to use the site, you agree to this use of cookies and data.
  • In Portugal
  • List of Countries
  • For 7 days
  • Water Temperature
  • Satellite Maps
  • Weather Map
  • Weather Widgets
  • user-avatar
    Login

    Hourly Weather Eger

    Today, 18 July, Thursday

    Time Temperature Precipitation Wind Pressure Humidity
    00:00 +16°C° 0 mm 2 mps 742 mmHg 78%
    01:00 +16°C° 0 mm 2 mps 742 mmHg 77%
    02:00 +15°C° 0 mm 2 mps 742 mmHg 78%
    03:00 +15°C° 0 mm 2 mps 742 mmHg 79%
    04:00 +15°C° 0 mm 1 mps 742 mmHg 79%
    05:00 +16°C° 0 mm 2 mps 742 mmHg 75%
    06:00 +18°C° 0 mm 2 mps 742 mmHg 70%
    07:00 +21°C° 0 mm 1 mps 742 mmHg 62%
    08:00 +21°C° 0 mm 2 mps 743 mmHg 57%
    09:00 +23°C° 0 mm 2 mps 743 mmHg 52%
    10:00 +25°C° 0 mm 2 mps 743 mmHg 47%
    11:00 +25°C° 0 mm 2 mps 743 mmHg 46%
    12:00 +26°C° 0 mm 2 mps 743 mmHg 45%
    13:00 +27°C° 0 mm 2 mps 743 mmHg 44%
    14:00 +26°C° 0.2 mm 2 mps 743 mmHg 48%
    15:00 +26°C° 0.2 mm 2 mps 743 mmHg 52%
    16:00 +26°C° 0.2 mm 2 mps 743 mmHg 57%
    17:00 +24°C° 1 mm 2 mps 743 mmHg 64%
    18:00 +22°C° 1 mm 1 mps 743 mmHg 72%
    19:00 +21°C° 1 mm 1 mps 742 mmHg 79%
    20:00 +20°C° 0.1 mm 1 mps 743 mmHg 81%
    21:00 +19°C° 0.1 mm 1 mps 743 mmHg 82%
    22:00 +16°C° 0.1 mm 0 mps 744 mmHg 83%
    23:00 +18°C° 0 mm 1 mps 744 mmHg 85%

    Tomorrow, 19 July, Friday

    Time Temperature Precipitation Wind Pressure Humidity
    00:00 +16°C° 0 mm 1 mps 744 mmHg 86%
    01:00 +16°C° 0 mm 1 mps 744 mmHg 88%
    02:00 +16°C° 0 mm 1 mps 744 mmHg 89%
    03:00 +15°C° 0 mm 1 mps 744 mmHg 91%
    04:00 +15°C° 0 mm 1 mps 744 mmHg 92%
    05:00 +16°C° 0 mm 1 mps 744 mmHg 88%
    06:00 +19°C° 0 mm 1 mps 745 mmHg 84%
    07:00 +20°C° 0 mm 1 mps 745 mmHg 81%
    08:00 +22°C° 0 mm 1 mps 745 mmHg 73%
    09:00 +24°C° 0 mm 1 mps 745 mmHg 66%
    10:00 +26°C° 0 mm 1 mps 745 mmHg 58%
    11:00 +26°C° 0.6 mm 1 mps 745 mmHg 57%
    12:00 +27°C° 0.6 mm 2 mps 745 mmHg 55%
    13:00 +27°C° 0.6 mm 2 mps 745 mmHg 54%
    14:00 +27°C° 0.1 mm 2 mps 745 mmHg 52%
    15:00 +28°C° 0.1 mm 2 mps 745 mmHg 49%
    16:00 +28°C° 0.1 mm 2 mps 745 mmHg 47%
    17:00 +27°C° 0 mm 2 mps 745 mmHg 52%
    18:00 +25°C° 0 mm 1 mps 745 mmHg 58%
    19:00 +22°C° 0 mm 0 mps 745 mmHg 63%
    20:00 +21°C° 0 mm 0 mps 745 mmHg 65%
    21:00 +20°C° 0 mm 0 mps 745 mmHg 66%
    22:00 +19°C° 0 mm 0 mps 746 mmHg 67%
    23:00 +19°C° 0 mm 0 mps 746 mmHg 69%

    Day after tomorrow, 20 July, Saturday

    Time Temperature Precipitation Wind Pressure Humidity
    00:00 +18°C° 0 mm 0 mps 746 mmHg 71%
    01:00 +18°C° 0 mm 0 mps 746 mmHg 72%
    02:00 +17°C° 0 mm 0 mps 746 mmHg 74%
    03:00 +17°C° 0 mm 0 mps 746 mmHg 75%
    04:00 +17°C° 0 mm 0 mps 746 mmHg 77%
    05:00 +18°C° 0 mm 0 mps 746 mmHg 73%
    06:00 +22°C° 0 mm 1 mps 747 mmHg 69%
    07:00 +24°C° 0 mm 1 mps 747 mmHg 65%
    08:00 +25°C° 0.1 mm 1 mps 747 mmHg 61%
    09:00 +27°C° 0.1 mm 1 mps 747 mmHg 57%
    10:00 +28°C° 0.1 mm 1 mps 748 mmHg 54%
    11:00 +29°C° 0.1 mm 2 mps 747 mmHg 50%
    12:00 +30°C° 0.1 mm 2 mps 747 mmHg 47%
    13:00 +31°C° 0.1 mm 3 mps 747 mmHg 44%
    14:00 +31°C° 0 mm 3 mps 747 mmHg 44%
    15:00 +31°C° 0 mm 2 mps 747 mmHg 44%
    16:00 +31°C° 0 mm 2 mps 747 mmHg 44%
    17:00 +29°C° 0 mm 2 mps 747 mmHg 49%
    18:00 +27°C° 0 mm 1 mps 747 mmHg 55%
    19:00 +24°C° 0 mm 0 mps 747 mmHg 60%
    20:00 +23°C° 0 mm 0 mps 747 mmHg 62%
    21:00 +24°C° 0 mm 1 mps 747 mmHg 64%
    22:00 +23°C° 0 mm 1 mps 748 mmHg 66%
    23:00 +20°C° 0 mm 0 mps 747 mmHg 68%

    21 July, Sunday

    Time Temperature Precipitation Wind Pressure Humidity
    00:00 +20°C° 0 mm 0 mps 747 mmHg 70%
    01:00 +19°C° 0 mm 0 mps 747 mmHg 72%
    02:00 +19°C° 0 mm 0 mps 747 mmHg 74%
    03:00 +19°C° 0 mm 0 mps 747 mmHg 75%
    04:00 +18°C° 0 mm 0 mps 747 mmHg 77%
    05:00 +20°C° 0 mm 0 mps 747 mmHg 73%
    06:00 +21°C° 0 mm 0 mps 748 mmHg 68%
    07:00 +23°C° 0 mm 0 mps 748 mmHg 64%
    08:00 +27°C° 0 mm 1 mps 748 mmHg 59%
    09:00 +28°C° 0 mm 2 mps 748 mmHg 54%
    10:00 +30°C° 0 mm 3 mps 749 mmHg 50%
    11:00 +31°C° 0 mm 3 mps 748 mmHg 47%
    12:00 +33°C° 0 mm 3 mps 748 mmHg 45%
    13:00 +34°C° 0 mm 4 mps 748 mmHg 43%
    14:00 +34°C° 0 mm 4 mps 748 mmHg 43%
    15:00 +34°C° 0 mm 4 mps 748 mmHg 43%
    16:00 +34°C° 0 mm 4 mps 748 mmHg 44%
    17:00 +31°C° 0 mm 3 mps 747 mmHg 50%
    18:00 +29°C° 0 mm 2 mps 747 mmHg 57%
    19:00 +28°C° 0 mm 2 mps 747 mmHg 63%
    20:00 +27°C° 0.2 mm 2 mps 747 mmHg 68%
    21:00 +25°C° 0.2 mm 2 mps 748 mmHg 72%
    22:00 +24°C° 0.2 mm 2 mps 748 mmHg 76%
    23:00 +23°C° 0.1 mm 2 mps 748 mmHg 78%

    22 July, Monday

    Time Temperature Precipitation Wind Pressure Humidity
    00:00 +23°C° 0.1 mm 2 mps 748 mmHg 79%
    01:00 +22°C° 0.1 mm 1 mps 748 mmHg 81%
    02:00 +21°C° 0 mm 2 mps 748 mmHg 83%
    03:00 +20°C° 0 mm 2 mps 748 mmHg 85%
    04:00 +20°C° 0 mm 2 mps 748 mmHg 87%
    05:00 +21°C° 0 mm 2 mps 748 mmHg 82%
    06:00 +24°C° 0 mm 2 mps 749 mmHg 78%
    07:00 +25°C° 0 mm 2 mps 749 mmHg 73%
    08:00 +27°C° 0 mm 2 mps 749 mmHg 65%
    09:00 +28°C° 0 mm 2 mps 749 mmHg 57%
    10:00 +30°C° 0 mm 2 mps 749 mmHg 49%
    11:00 +30°C° 0 mm 2 mps 749 mmHg 47%
    12:00 +31°C° 0 mm 1 mps 749 mmHg 45%
    13:00 +31°C° 0 mm 1 mps 749 mmHg 43%
    14:00 +31°C° 0 mm 2 mps 749 mmHg 43%
    15:00 +31°C° 0 mm 2 mps 749 mmHg 42%
    16:00 +31°C° 0 mm 2 mps 748 mmHg 41%
    17:00 +29°C° 0 mm 2 mps 748 mmHg 50%
    18:00 +28°C° 0 mm 2 mps 748 mmHg 58%
    19:00 +26°C° 0 mm 1 mps 748 mmHg 66%
    20:00 +25°C° 0 mm 2 mps 748 mmHg 67%
    21:00 +25°C° 0 mm 2 mps 749 mmHg 67%
    22:00 +24°C° 0 mm 2 mps 749 mmHg 68%
    23:00 +23°C° 0 mm 2 mps 749 mmHg 69%

    23 July, Tuesday

    Time Temperature Precipitation Wind Pressure Humidity
    00:00 +21°C° 0 mm 2 mps 749 mmHg 71%
    01:00 +21°C° 0 mm 2 mps 749 mmHg 72%
    02:00 +20°C° 0 mm 2 mps 748 mmHg 72%
    03:00 +20°C° 0 mm 2 mps 748 mmHg 72%
    04:00 +20°C° 0 mm 2 mps 748 mmHg 72%
    05:00 +21°C° 0 mm 2 mps 748 mmHg 69%
    06:00 +23°C° 0 mm 2 mps 748 mmHg 67%
    07:00 +24°C° 0 mm 2 mps 748 mmHg 64%
    08:00 +25°C° 0 mm 2 mps 748 mmHg 59%
    09:00 +26°C° 0 mm 1 mps 748 mmHg 54%
    10:00 +28°C° 0 mm 1 mps 748 mmHg 50%
    11:00 +28°C° 0 mm 1 mps 748 mmHg 47%
    12:00 +29°C° 0 mm 1 mps 748 mmHg 44%
    13:00 +30°C° 0 mm 1 mps 748 mmHg 41%
    14:00 +29°C° 0 mm 1 mps 747 mmHg 41%
    15:00 +29°C° 0 mm 1 mps 747 mmHg 42%
    16:00 +29°C° 0 mm 2 mps 747 mmHg 42%
    17:00 +28°C° 0 mm 2 mps 747 mmHg 50%
    18:00 +26°C° 0 mm 2 mps 747 mmHg 57%
    19:00 +24°C° 0 mm 3 mps 747 mmHg 64%
    20:00 +22°C° 0 mm 3 mps 747 mmHg 63%
    21:00 +21°C° 0 mm 3 mps 747 mmHg 61%
    22:00 +20°C° 0 mm 3 mps 747 mmHg 60%
    23:00 +20°C° 0 mm 3 mps 747 mmHg 61%
    Show more